TimeCDT,TemperatureF,Dew PointF,Humidity,Sea Level PressureIn,VisibilityMPH,Wind Direction,Wind SpeedMPH,Gust SpeedMPH,PrecipitationIn,Events,Conditions,WindDirDegrees,DateUTC
12:15 AM,51.8,46.4,82,30.03,10.0,North,3.5,-,N/A,,Clear,360,2013-05-07 05:15:00
12:35 AM,51.8,46.4,82,30.03,10.0,NW,3.5,-,N/A,,Clear,310,2013-05-07 05:35:00
12:55 AM,51.8,46.4,82,30.03,10.0,North,3.5,-,N/A,,Clear,360,2013-05-07 05:55:00
1:15 AM,51.8,46.4,82,30.04,10.0,Calm,Calm,-,N/A,,Clear,0,2013-05-07 06:15:00
1:35 AM,48.2,44.6,87,30.03,10.0,Calm,Calm,-,N/A,,Clear,0,2013-05-07 06:35:00
1:55 AM,48.2,44.6,87,30.04,10.0,Calm,Calm,-,N/A,,Clear,0,2013-05-07 06:55:00
2:15 AM,48.2,44.6,87,30.04,10.0,Calm,Calm,-,N/A,,Clear,0,2013-05-07 07:15:00
2:35 AM,48.2,44.6,87,30.03,10.0,North,3.5,-,N/A,,Clear,350,2013-05-07 07:35:00
2:55 AM,48.2,44.6,87,30.04,10.0,Calm,Calm,-,N/A,,Clear,0,2013-05-07 07:55:00
3:15 AM,48.2,44.6,87,30.03,10.0,Calm,Calm,-,N/A,,Clear,0,2013-05-07 08:15:00
3:35 AM,46.4,44.6,93,30.03,10.0,Calm,Calm,-,N/A,,Clear,0,2013-05-07 08:35:00
3:55 AM,46.4,44.6,93,30.03,10.0,Calm,Calm,-,N/A,,Clear,0,2013-05-07 08:55:00
4:15 AM,46.4,44.6,93,30.03,10.0,Calm,Calm,-,N/A,,Clear,0,2013-05-07 09:15:00
4:35 AM,46.4,42.8,87,30.04,10.0,ESE,5.8,-,N/A,,Clear,110,2013-05-07 09:35:00
4:55 AM,48.2,44.6,87,30.04,10.0,ESE,3.5,-,N/A,,Clear,120,2013-05-07 09:55:00
5:15 AM,46.4,44.6,93,30.04,10.0,Calm,Calm,-,N/A,,Clear,0,2013-05-07 10:15:00
5:35 AM,44.6,42.8,93,30.04,7.0,Calm,Calm,-,N/A,,Clear,0,2013-05-07 10:35:00
5:55 AM,46.4,42.8,87,30.05,10.0,North,3.5,-,N/A,,Clear,360,2013-05-07 10:55:00
6:15 AM,46.4,42.8,87,30.05,7.0,Calm,Calm,-,N/A,,Clear,0,2013-05-07 11:15:00
6:35 AM,46.4,44.6,93,30.05,10.0,Calm,Calm,-,N/A,,Clear,0,2013-05-07 11:35:00
6:55 AM,48.2,44.6,87,30.05,10.0,Calm,Calm,-,N/A,,Clear,0,2013-05-07 11:55:00
7:15 AM,50.0,46.4,87,30.06,10.0,Calm,Calm,-,N/A,,Clear,0,2013-05-07 12:15:00
7:35 AM,51.8,48.2,88,30.06,10.0,Calm,Calm,-,N/A,,Clear,0,2013-05-07 12:35:00
7:55 AM,53.6,48.2,82,30.06,10.0,Calm,Calm,-,N/A,,Clear,0,2013-05-07 12:55:00
8:15 AM,53.6,48.2,82,30.06,10.0,Calm,Calm,-,N/A,,Clear,0,2013-05-07 13:15:00
8:35 AM,55.4,48.2,77,30.06,10.0,Calm,Calm,-,N/A,,Clear,0,2013-05-07 13:35:00
8:55 AM,59.0,50.0,72,30.07,10.0,Calm,Calm,-,N/A,,Clear,0,2013-05-07 13:55:00
9:15 AM,60.8,50.0,68,30.06,10.0,Calm,Calm,-,N/A,,Clear,0,2013-05-07 14:15:00
9:35 AM,62.6,50.0,63,30.06,10.0,Calm,Calm,-,N/A,,Clear,0,2013-05-07 14:35:00
9:55 AM,64.4,50.0,59,30.06,10.0,Calm,Calm,-,N/A,,Clear,0,2013-05-07 14:55:00
10:15 AM,66.2,50.0,56,30.05,10.0,Calm,Calm,-,N/A,,Clear,0,2013-05-07 15:15:00
10:35 AM,68.0,48.2,49,30.05,10.0,Calm,Calm,-,N/A,,Clear,0,2013-05-07 15:35:00
10:55 AM,69.8,48.2,46,30.05,10.0,Calm,Calm,-,N/A,,Clear,0,2013-05-07 15:55:00
11:15 AM,73.4,48.2,41,30.04,10.0,Calm,Calm,-,N/A,,Clear,0,2013-05-07 16:15:00
11:35 AM,73.4,46.4,38,30.04,10.0,SSW,3.5,-,N/A,,Clear,210,2013-05-07 16:35:00
11:55 AM,73.4,46.4,38,30.04,10.0,Calm,Calm,-,N/A,,Clear,0,2013-05-07 16:55:00
12:15 PM,75.2,42.8,31,30.03,10.0,SSE,4.6,-,N/A,,Clear,150,2013-05-07 17:15:00
12:35 PM,75.2,41.0,29,30.02,10.0,SE,3.5,-,N/A,,Clear,140,2013-05-07 17:35:00
12:55 PM,75.2,41.0,29,30.02,10.0,South,4.6,-,N/A,,Clear,170,2013-05-07 17:55:00
1:15 PM,75.2,41.0,29,30.02,10.0,South,5.8,-,N/A,,Scattered Clouds,170,2013-05-07 18:15:00
1:35 PM,75.2,42.8,31,30.01,10.0,SSE,3.5,-,N/A,,Mostly Cloudy,160,2013-05-07 18:35:00
1:55 PM,75.2,41.0,29,30.01,10.0,ESE,5.8,-,N/A,,Mostly Cloudy,110,2013-05-07 18:55:00
2:15 PM,75.2,41.0,29,30.00,10.0,SE,4.6,-,N/A,,Mostly Cloudy,130,2013-05-07 19:15:00
2:35 PM,78.8,39.2,24,30.00,10.0,Calm,Calm,-,N/A,,Scattered Clouds,0,2013-05-07 19:35:00
2:55 PM,78.8,39.2,24,29.99,10.0,Calm,Calm,-,N/A,,Clear,0,2013-05-07 19:55:00
3:15 PM,75.2,39.2,27,29.99,10.0,Calm,Calm,-,N/A,,Mostly Cloudy,0,2013-05-07 20:15:00
3:35 PM,75.2,39.2,27,29.99,10.0,Calm,Calm,-,N/A,,Overcast,0,2013-05-07 20:35:00
3:55 PM,77.0,41.0,28,29.98,10.0,NW,3.5,-,N/A,,Mostly Cloudy,310,2013-05-07 20:55:00
4:15 PM,78.8,41.0,26,29.98,10.0,SW,8.1,-,N/A,,Mostly Cloudy,220,2013-05-07 21:15:00
4:35 PM,78.8,42.8,28,29.97,10.0,West,3.5,-,N/A,,Scattered Clouds,270,2013-05-07 21:35:00
4:55 PM,78.8,42.8,28,29.97,10.0,SW,5.8,-,N/A,,Clear,230,2013-05-07 21:55:00
5:15 PM,78.8,41.0,26,29.97,10.0,West,3.5,-,N/A,,Scattered Clouds,260,2013-05-07 22:15:00
5:35 PM,78.8,41.0,26,29.97,10.0,SSW,5.8,-,N/A,,Scattered Clouds,200,2013-05-07 22:35:00
5:55 PM,78.8,41.0,26,29.97,10.0,West,6.9,-,N/A,,Clear,280,2013-05-07 22:55:00
6:15 PM,77.0,41.0,28,29.97,10.0,SW,4.6,-,N/A,,Clear,220,2013-05-07 23:15:00
6:35 PM,77.0,41.0,28,29.96,10.0,WSW,6.9,-,N/A,,Clear,240,2013-05-07 23:35:00
6:55 PM,75.2,41.0,29,29.96,10.0,SW,3.5,-,N/A,,Clear,230,2013-05-07 23:55:00
7:15 PM,75.2,41.0,29,29.96,10.0,SW,4.6,-,N/A,,Clear,230,2013-05-08 00:15:00
7:35 PM,73.4,42.8,33,29.96,10.0,Calm,Calm,-,N/A,,Clear,0,2013-05-08 00:35:00
7:55 PM,69.8,42.8,38,29.96,10.0,Calm,Calm,-,N/A,,Clear,0,2013-05-08 00:55:00
8:15 PM,66.2,46.4,49,29.96,10.0,Calm,Calm,-,N/A,,Clear,0,2013-05-08 01:15:00
8:35 PM,62.6,48.2,59,29.97,10.0,Calm,Calm,-,N/A,,Clear,0,2013-05-08 01:35:00
8:55 PM,60.8,48.2,63,29.97,10.0,Calm,Calm,-,N/A,,Scattered Clouds,0,2013-05-08 01:55:00
9:14 PM,60.8,46.4,59,29.97,10.0,Calm,Calm,-,N/A,,Scattered Clouds,0,2013-05-08 02:14:00
9:35 PM,60.8,46.4,59,29.97,10.0,Calm,Calm,-,N/A,,Clear,0,2013-05-08 02:35:00
9:55 PM,57.2,46.4,67,29.98,10.0,Calm,Calm,-,N/A,,Clear,0,2013-05-08 02:55:00
10:15 PM,57.2,46.4,67,29.98,10.0,Calm,Calm,-,N/A,,Clear,0,2013-05-08 03:15:00
10:35 PM,55.4,48.2,77,29.97,10.0,Calm,Calm,-,N/A,,Clear,0,2013-05-08 03:35:00
10:55 PM,53.6,46.4,77,29.97,10.0,Calm,Calm,-,N/A,,Clear,0,2013-05-08 03:55:00
11:15 PM,55.4,46.4,72,29.97,10.0,Calm,Calm,-,N/A,,Clear,0,2013-05-08 04:15:00
11:35 PM,53.6,46.4,77,29.97,10.0,Calm,Calm,-,N/A,,Clear,0,2013-05-08 04:35:00
11:55 PM,53.6,46.4,77,29.97,10.0,Calm,Calm,-,N/A,,Clear,0,2013-05-08 04:55:00